Skip Page Navigation
NASA JPL Caltech
NASA Logo - Jet Propulsion Laboratory + View the NASA Portal
+ Center for Near-Earth Object Studies
JPL Home Earth Solar System Stars & Galaxies Technology
JPL Solar System Dynamics
BODIES ORBITS EPHEMERIDES TOOLS PHYSICAL DATA DISCOVERY FAQ SITE MAP
IMPORTANT: The SSD Announcement email list is now available. Major changes are coming in the near future, including possible hostname and/or URL changes. To be notified of such changes, subscribe to this email list.

Please visit this page for more details.


JPL Small-Body Database Browser
Search: [ help ]  
447594 (2006 UM62)
Classification: Main-belt Asteroid          SPK-ID: 2447594
Ephemeris | Orbit Diagram | Orbital Elements | Mission Design | Physical Parameters | Discovery Circumstances | Close-Approach Data ]

[ show orbit diagram ]
Orbital Elements at Epoch 2458600.5 (2019-Apr-27.0) TDB
Reference: JPL 16 (heliocentric ecliptic J2000)
 Element Value Uncertainty (1-sigma)   Units 
e .2179851473850707 4.6913e-08  
a 2.686126083495718 2.6083e-08 au
q 2.100590493290021 1.1733e-07 au
i 3.571326816160528 7.8965e-06 deg
node 53.6137621115846 8.8306e-05 deg
peri 248.56454652221 9.1381e-05 deg
M 6.787654156974804 1.9389e-05 deg
tp 2458570.181673657412
(2019-Mar-27.68167366)
8.6572e-05 TDB
period 1608.007307225005
4.40
2.3421e-05
6.412e-08
d
yr
n .2238795796402596 3.2609e-09 deg/d
Q 3.271661673701415 3.1769e-08 au
  Orbit Determination Parameters
   # obs. used (total)      138  
   data-arc span      5309 days (14.54 yr)  
   first obs. used      2005-04-16  
   last obs. used      2019-10-29  
   planetary ephem.      DE431  
   SB-pert. ephem.      SB431-N16  
   condition code      0  
   norm. resid. RMS      .55584  
   source      ORB  
   producer      Otto Matic  
   solution date      2019-Nov-08 16:22:21  

Additional Information
 Earth MOID = 1.08768 au 
 Jupiter MOID = 1.97826 au 
 T_jup = 3.337 
[ show covariance matrix ]

Ephemeris | Orbit Diagram | Orbital Elements | Mission Design | Physical Parameters | Discovery Circumstances | Close-Approach Data ]

Physical Parameter Table
Parameter Symbol Value Units Sigma Reference Notes
absolute magnitude H 17.2   n/a MPO440857  

447594 (2006 UM62)          Discovered 2005-Apr-16 by Spacewatch at Kitt Peak
Reference: Last Updated: 2015-10-28

[ show close-approach data ]
Alternate Designations
 2006 UM62 = 2005 JG53 = 2014 KD99 
Ephemeris | Orbit Diagram | Orbital Elements | Mission Design | Physical Parameters | Discovery Circumstances | Close-Approach Data ]
ABOUT SSD CREDITS/AWARDS PRIVACY/COPYRIGHT GLOSSARY LINKS
FirstGov
(server date/time)  
NASA Home Page
Site Manager:   Ryan S. Park
Webmaster  Alan B. Chamberlin